Location: Champseau
(45.8333°N, 1.7667°E)
Time: 19:32:30
(UTC+00:00)

STRAND 1 - Pass Details

Date: 07 December 2021
Orbit: 768 x 780 km, 98.4° (Epoch: 23 January)

Event Time Altitude Azimuth Distance (km) Brightness Sun altitude
Rises 05:46:23 0° 156° (SSE) 3,244 ? -15.7°
Reaches altitude 10° 05:48:42 10° 153° (SSE) 2,319 ? -15.3°
Maximum altitude 05:53:46 66° 72° (ENE) 848 ? -14.5°
Drops below altitude 10° 05:58:50 10° 352° (N) 2,327 ? -13.6°
Sets 06:01:10 0° 349° (N) 3,257 ? -13.2°
